Location: Heisler
(52.6701°N, 112.2239°W)
Time: 10:36:29
(UTC+00:00)

Envisat - Pass Details

Date: 07 December 2021
Orbit: 764 x 766 km, 98.2° (Epoch: 28 January)

Event Time Altitude Azimuth Distance (km) Brightness Sun altitude
Rises 11:59:02 0° 19° (NNE) 3,248 6.5 -30.1°
Reaches altitude 10° 12:01:30 10° 27° (NNE) 2,316 5.8 -29.7°
Maximum altitude 12:06:17 39° 96° (E) 1,137 4.3 -29.0°
Drops below altitude 10° 12:11:01 10° 166° (SSE) 2,299 5.6 -28.3°
Sets 12:13:27 0° 174° (S) 3,220 6.3 -27.9°
